[[{"header":{"parameterUnit":"m.s-1","parameterCategory":1,"la1":30.2991,"la2":30.254,"lo1":-89.0895,"lo2":-89.0444,"dy":0.0017,"dx":0.0017,"nx":28,"ny":28,"refTime":"2024-05-02T03:00:00:Z","depth":0,"parameterNumber":2,"parameterNumberName":"U-component_of_WINDS"},"data":[0,0,0,0,0,0,0,0,0,0,0,0,0,0,0,0,0,0,0,0,0,0,0,0,0,0,0,0,0,0,0,0,0,0,0,0,0,0,0,0,0,0,0,0,0,0,0,0,0,0,0,0,0,0,0,0,0,0,-3.7647,-3.7648,0,-3.7663,-3.7664,-3.7664,-3.7592,-3.759,-3.7588,-3.7586,-3.7602,-3.7604,-3.7606,0,0,0,0,0,0,0,0,0,0,0,0,0,-3.7556,-3.7558,-3.7647,-3.7648,-3.7648,-3.7663,-3.7664,-3.7664,-3.7593,-3.759,-3.7587,-3.7585,-3.7601,-3.7604,-3.7606,0,0,0,0,0,0,0,0,0,0,0,0,0,-3.7586,-3.7559,-3.7647,-3.7614,-3.7611,-3.7663,-3.7664,-3.7664,-3.7593,-3.759,-3.7587,-3.7584,-3.76,-3.7603,-3.7607,-3.7691,0,0,-3.7618,-3.7619,0,0,0,0,0,0,0,0,-3.7585,-3.759,-3.7619,-3.7617,-3.7613,-3.7623,-3.7637,-3.7673,-3.7594,-3.76,-3.7586,-3.7582,-3.7611,-3.7614,-3.7623,-3.7692,-3.7693,-3.7618,-3.762,-3.7622,-3.7623,0,0,0,0,0,0,0,-3.7583,-3.7589,-3.7654,-3.7619,-3.7616,-3.7599,-3.76,-3.7644,-3.7623,-3.7599,-3.7594,-3.7597,-3.7609,-3.762,-3.7623,-3.7693,-3.7618,-3.7621,-3.7623,-3.7625,-3.7833,-3.7836,0,0,0,0,0,0,-3.7585,-3.7587,-3.7653,-3.7654,-3.7591,-3.7603,-3.7604,-3.7623,-3.7622,-3.7619,-3.76,-3.7594,-3.7616,-3.7619,-3.7623,-3.7722,-3.7622,-3.7625,-3.7627,-3.783,-3.7834,-3.7837,0,0,0,0,0,0,-3.7583,-3.7592,-3.7652,-3.7619,-3.7626,-3.7608,-3.763,-3.7625,-3.7636,-3.7623,-3.7618,-3.7615,-3.7613,-3.7618,-3.7675,-3.7722,-3.7627,-3.763,-3.7826,-3.7831,-3.7836,-3.792,0,0,0,0,0,0,-3.7581,-3.7591,-3.7623,-3.7621,-3.7628,-3.7704,-3.7633,-3.7627,-3.7642,-3.7634,-3.7635,-3.7633,-3.7611,-3.767,-3.7679,-3.7725,-3.7633,-3.7821,-3.7828,-3.7834,-3.7913,-3.7928,-3.794,0,0,0,0,0,-3.7578,-3.7646,-3.7625,-3.7633,-3.7667,-3.7707,-3.7711,-3.7685,-3.7646,-3.7678,-3.767,-3.7633,-3.7716,-3.7677,-3.7686,-3.7733,-3.7818,-3.7826,-3.7834,-3.7907,-3.7925,-3.794,0,0,0,0,0,0,-3.7652,-3.7645,-3.7621,-3.769,-3.77,-3.7694,-3.7733,-3.7704,-3.7725,-3.7716,-3.7683,-3.7684,-3.7747,-3.7746,-3.7703,-3.7816,-3.776,-3.777,-3.7813,-3.783,-3.7843,-3.7841,-3.7635,0,0,0,0,0,-3.7677,-3.771,-3.7702,-3.7763,-3.777,-3.7751,-3.7767,-3.7747,-3.7755,-3.7759,-3.7755,-3.7764,-3.7793,-3.7812,-3.7837,-3.7914,-3.7913,-3.7952,-3.7965,-3.7976,-3.7984,-3.8025,-3.8042,-3.7863,-3.7863,-3.7862,0,0,-3.7728,-3.7728,-3.775,-3.7778,-3.7783,-3.7818,-3.7755,-3.7794,-3.782,-3.7765,-3.7817,-3.7816,-3.7824,-3.7892,-3.7921,-3.7893,-3.8034,-3.7986,-3.7995,-3.7997,-3.8035,-3.8052,-3.8067,-3.7868,-3.7867,-3.7866,0,0,-3.7838,-3.7841,-3.7893,-3.79,-3.7909,-3.7897,-3.791,-3.791,-3.7906,-3.796,-3.7919,-3.795,-3.7999,-3.8007,-3.8018,-3.8135,-3.8102,-3.8145,-3.8213,-3.8254,-3.8268,-3.828,-3.8321,-3.8336,-3.8153,-3.8153,-3.8154,0,-3.7899,-3.795,-3.7923,-3.7966,-3.798,-3.7933,-3.7986,-3.7994,-3.8011,-3.8021,-3.799,-3.8052,-3.8055,-3.8124,-3.8153,-3.8163,-3.8177,-3.8142,-3.8268,-3.828,-3.8291,-3.833,-3.8346,-3.8158,-3.8158,-3.8157,-3.8157,0,-3.8025,-3.8062,-3.8103,-3.8121,-3.814,-3.8187,-3.8168,-3.8191,-3.817,-3.8161,-3.8217,-3.8219,-3.8244,-3.826,-3.8239,-3.8327,-3.8309,-3.8274,-3.8217,-3.8314,-3.835,-3.8364,-3.8166,-3.8164,-3.8162,-3.8161,0,0,-3.8178,-3.8184,-3.8199,-3.8207,-3.8215,-3.8243,-3.829,-3.8315,-3.8335,-3.8349,-3.8387,-3.8432,-3.84,-3.8412,-3.8393,-3.8429,-3.8521,-3.8389,-3.8389,-3.8412,-3.8617,-3.8641,-3.8659,-3.85,-3.8503,-3.8505,-3.8615,0,-3.8285,-3.8364,-3.8343,-3.8421,-3.8455,-3.8413,-3.8453,-3.8463,-3.8458,-3.8486,-3.8479,-3.8511,-3.8467,-3.8474,-3.8508,-3.8502,-3.8561,-3.8495,-3.8534,-3.8536,-3.8531,-3.8678,-3.8703,-3.8807,-3.8629,-3.8632,-3.8633,0,-3.8419,-3.8439,-3.8521,-3.8526,-3.8539,-3.8575,-3.8598,-3.8626,-3.8637,-3.863,-3.8646,-3.862,-3.8666,-3.8612,-3.8675,-3.863,-3.8646,-3.8646,-3.865,-3.865,-3.8589,-3.868,-3.884,-3.8855,-3.8655,-3.8654,-3.8652,0,-3.8521,-3.8569,-3.8625,-3.8633,-3.864,-3.8667,-3.8671,-3.8679,-3.8696,-3.8717,-3.8727,-3.8753,-3.8767,-3.8788,-3.877,-3.8732,-3.8836,-3.878,-3.8831,-3.8832,-3.8852,-3.8851,-3.9014,-3.8867,-3.8867,-3.8866,-3.8866,0,-3.8641,-3.8692,-3.8671,-3.8705,-3.8762,-3.8738,-3.8796,-3.8795,-3.8803,-3.8836,-3.8803,-3.8835,-3.8811,-3.8841,-3.8828,-3.8883,-3.8889,-3.8885,-3.8881,-3.8887,-3.8887,-3.8895,-3.8886,-3.887,-3.887,-3.8869,-3.8868,0,-3.8762,-3.875,-3.8808,-3.8811,-3.8813,-3.8855,-3.8857,-3.8889,-3.8882,-3.8925,-3.8934,-3.8923,-3.8957,-3.8943,-3.8979,-3.897,-3.904,-3.9027,-3.9036,-3.9031,-3.9083,-3.9078,-3.9255,-3.9277,-3.9117,-3.9119,-3.912,0,-3.8838,-3.8877,-3.8885,-3.8905,-3.8912,-3.8945,-3.8963,-3.8943,-3.8963,-3.898,-3.901,-3.9042,-3.9065,-3.9122,-3.9118,-3.9146,-3.9132,-3.9192,-3.9135,-3.9141,-3.9131,-3.9128,-3.9131,-3.9202,-3.9204,-3.9206,-3.9207,0,-3.8974,-3.8967,-3.8994,-3.902,-3.9043,-3.9063,-3.9079,-3.9098,-3.9079,-3.9103,-3.9138,-3.9157,-3.9195,-3.9227,-3.9252,-3.9256,-3.9229,-3.9226,-3.9239,-3.9244,-3.9247,-3.9245,-3.9064,-3.9221,-3.9219,-3.9218,-3.9218,-3.9217,-3.9074,-3.9107,-3.9118,-3.915,-3.9161,-3.9178,-3.9208,-3.9206,-3.9235,-3.9264,-3.9251,-3.9292,-3.9304,-3.9335,-3.9344,-3.9376,-3.9352,-3.9371,-3.9376,-3.938,-3.9386,-3.9245,-3.9381,-3.938,-3.938,-3.9379,-3.9379,0,-3.9206,-3.9212,-3.9242,-3.9267,-3.9293,-3.9267,-3.9285,-3.9308,-3.9344,-3.9358,-3.9383,-3.9424,-3.9456,-3.9455,-3.9485,-3.951,-3.9498,-3.9518,-3.9515,-3.9516,-3.9406,-3.9391,-3.9528,-3.9528,-3.9528,-3.9527,-3.9527,-3.9527,-3.9278,-3.9332,-3.9327,-3.9387,-3.9393,-3.9433,-3.9445,-3.9461,-3.9472,-3.9519,-3.9546,-3.9546,-3.9554,-3.9585,-3.9613,-3.9612,-3.9623,-3.9648,-3.9642,-3.9539,-3.9524,-3.951,-3.9496,-3.9651,-3.9652,-3.9749,-3.975,-3.9751]},{"header":{"parameterUnit":"m.s-1","parameterCategory":1,"la1":30.2991,"la2":30.254,"lo1":-89.0895,"lo2":-89.0444,"dy":0.0017,"dx":0.0017,"nx":28,"ny":28,"refTime":"2024-05-02T03:00:00:Z","depth":0,"parameterNumber":3,"parameterNumberName":"V-component_of_WINDS"},"data":[0,0,0,0,0,0,0,0,0,0,0,0,0,0,0,0,0,0,0,0,0,0,0,0,0,0,0,0,0,0,0,0,0,0,0,0,0,0,0,0,0,0,0,0,0,0,0,0,0,0,0,0,0,0,0,0,0,0,1.7305,1.7304,0,1.7266,1.7265,1.7265,1.7261,1.7262,1.7262,1.7262,1.7218,1.7217,1.7215,0,0,0,0,0,0,0,0,0,0,0,0,0,1.7376,1.7374,1.7305,1.7304,1.7304,1.7266,1.7265,1.7265,1.7261,1.7262,1.7262,1.7263,1.7219,1.7217,1.7215,0,0,0,0,0,0,0,0,0,0,0,0,0,1.7341,1.7374,1.7305,1.7298,1.7297,1.7266,1.7265,1.7264,1.7261,1.7262,1.7262,1.7263,1.7219,1.7217,1.7215,1.7187,0,0,1.7208,1.7207,0,0,0,0,0,0,0,0,1.7343,1.7339,1.7299,1.7298,1.7297,1.7269,1.7274,1.7238,1.7261,1.7274,1.7262,1.7263,1.7234,1.7231,1.7222,1.7185,1.7183,1.7207,1.7206,1.7205,1.7204,0,0,0,0,0,0,0,1.7346,1.7341,1.7289,1.7299,1.7297,1.7296,1.7292,1.7267,1.7251,1.7273,1.7273,1.7268,1.7234,1.7224,1.7221,1.7183,1.7207,1.7205,1.7204,1.7203,1.7125,1.7125,0,0,0,0,0,0,1.735,1.7343,1.729,1.7288,1.7322,1.7294,1.729,1.7277,1.7251,1.7248,1.7268,1.7268,1.7228,1.7224,1.7219,1.7187,1.7205,1.7203,1.7201,1.7126,1.7125,1.7124,0,0,0,0,0,0,1.7351,1.7345,1.7292,1.7315,1.7308,1.7292,1.7278,1.7276,1.7266,1.7248,1.7244,1.7261,1.7228,1.7223,1.7196,1.7186,1.7202,1.72,1.7127,1.7126,1.7125,1.7122,0,0,0,0,0,0,1.7353,1.7346,1.7335,1.7315,1.7307,1.727,1.7278,1.7275,1.7263,1.7263,1.724,1.7237,1.7228,1.72,1.7194,1.7183,1.7198,1.7128,1.7126,1.7125,1.7123,1.7121,1.712,0,0,0,0,0,1.7356,1.7334,1.7335,1.7328,1.7294,1.7269,1.7265,1.7256,1.7262,1.7251,1.724,1.7238,1.7188,1.7197,1.7191,1.7178,1.7128,1.7127,1.7125,1.7124,1.7122,1.712,0,0,0,0,0,0,1.7351,1.7332,1.7331,1.7303,1.7288,1.7269,1.7255,1.7254,1.7235,1.7236,1.7226,1.7221,1.7195,1.7184,1.7195,1.7152,1.7159,1.7156,1.716,1.7158,1.7156,1.7159,1.7196,0,0,0,0,0,1.7347,1.733,1.7313,1.729,1.7283,1.727,1.7259,1.7255,1.7238,1.7231,1.7217,1.7201,1.7182,1.7169,1.7151,1.7122,1.7118,1.7111,1.7109,1.7108,1.7105,1.7092,1.7089,1.712,1.712,1.712,0,0,1.7338,1.7325,1.7314,1.7289,1.7277,1.7259,1.7265,1.7245,1.7232,1.7228,1.7203,1.7193,1.7174,1.7147,1.7135,1.7137,1.7097,1.7106,1.7105,1.7103,1.709,1.7087,1.7085,1.7119,1.7119,1.7119,0,0,1.7312,1.7301,1.7281,1.727,1.7253,1.7245,1.7241,1.7222,1.7216,1.7192,1.7189,1.7174,1.714,1.7128,1.7117,1.7092,1.7089,1.7086,1.7076,1.7063,1.7061,1.7059,1.7051,1.7048,1.7083,1.7083,1.7083,0,1.7303,1.7276,1.7271,1.7252,1.7242,1.724,1.7221,1.721,1.7186,1.7179,1.7183,1.7144,1.7131,1.7103,1.7097,1.7088,1.7083,1.7087,1.7062,1.706,1.7057,1.705,1.7047,1.7083,1.7083,1.7083,1.7083,0,1.7266,1.7249,1.7235,1.7215,1.7203,1.7184,1.7176,1.7164,1.7162,1.7154,1.713,1.7115,1.7095,1.7088,1.7084,1.706,1.7062,1.7064,1.707,1.7054,1.7047,1.7044,1.7083,1.7083,1.7083,1.7083,0,0,1.7233,1.7214,1.7209,1.7202,1.7185,1.717,1.7152,1.7134,1.7126,1.7111,1.7095,1.707,1.7073,1.7061,1.7056,1.7044,1.7027,1.7048,1.7047,1.7045,1.7002,1.7001,1.6997,1.7027,1.7026,1.7026,1.7004,0,1.7206,1.7175,1.7171,1.7143,1.7128,1.7128,1.7113,1.7101,1.7094,1.708,1.7072,1.7055,1.7059,1.7052,1.7041,1.7032,1.7018,1.7033,1.7012,1.7012,1.7017,1.6993,1.6991,1.6971,1.7001,1.7,1.7,0,1.717,1.7157,1.7128,1.7117,1.711,1.7096,1.7081,1.7067,1.7054,1.705,1.7039,1.7037,1.7019,1.7027,1.7003,1.7013,1.7005,1.6999,1.6998,1.6995,1.7004,1.699,1.6964,1.6961,1.6995,1.6995,1.6996,0,1.715,1.7126,1.7106,1.71,1.7085,1.7075,1.7069,1.7057,1.7047,1.7034,1.7028,1.7012,1.7003,1.6992,1.6985,1.6992,1.6962,1.6969,1.6958,1.6959,1.6951,1.6951,1.6923,1.6946,1.6946,1.6946,1.6946,0,1.712,1.7103,1.7098,1.7085,1.7067,1.7063,1.7044,1.7038,1.7028,1.7015,1.7014,1.7002,1.6994,1.6981,1.6976,1.6958,1.6953,1.695,1.6949,1.695,1.695,1.6943,1.6945,1.6945,1.6945,1.6945,1.6945,0,1.7095,1.709,1.7069,1.7059,1.7056,1.7042,1.7033,1.7022,1.7017,1.7,1.6996,1.6988,1.6973,1.6966,1.6946,1.6943,1.6922,1.6922,1.6927,1.6926,1.6917,1.6918,1.6883,1.6879,1.6904,1.6904,1.6903,0,1.7076,1.7063,1.7052,1.7044,1.7038,1.7025,1.7016,1.7013,1.7004,1.6991,1.6981,1.6967,1.6954,1.693,1.6922,1.6908,1.6907,1.6896,1.6905,1.6908,1.6908,1.6909,1.6908,1.6894,1.6894,1.6894,1.6894,0,1.7043,1.7043,1.7031,1.7019,1.701,1.7,1.699,1.6984,1.6979,1.6969,1.6955,1.6946,1.6928,1.6914,1.69,1.6893,1.6893,1.6892,1.6889,1.6889,1.6893,1.6892,1.6923,1.6892,1.6892,1.6892,1.6892,1.6892,1.7021,1.701,1.7002,1.699,1.6983,1.6975,1.6965,1.696,1.6949,1.6935,1.6934,1.6919,1.6909,1.689,1.6883,1.6872,1.6874,1.6869,1.6868,1.6867,1.6867,1.6896,1.6869,1.6869,1.6869,1.6869,1.6869,0,1.6989,1.6985,1.6974,1.6962,1.6953,1.6956,1.6946,1.6938,1.6926,1.6917,1.6907,1.6892,1.6879,1.6871,1.6858,1.6851,1.685,1.6847,1.6848,1.6846,1.6865,1.6869,1.6848,1.6848,1.6848,1.6848,1.6848,1.6848,1.6971,1.6955,1.6954,1.6935,1.693,1.6917,1.6912,1.6905,1.6898,1.6882,1.6872,1.6868,1.6861,1.6848,1.6837,1.6835,1.683,1.6827,1.6826,1.6843,1.6845,1.6847,1.6851,1.6826,1.6826,1.6808,1.6808,1.6808]}]]